User: anonymous   Login
Location: Unspecified
(0.0000°N, 0.0000°E)
Time: 00:52:38
(UTC+00:00)
Language:

STRAND 1 - Orbit

View from above orbital plane
View from above orbital plane
View from above satellite
View from above satellite

Ground track
Ground track

The orbit data is extracted from the following two-line orbital elements,

1 39090U 13009E   19018.55746421  .00000027  00000-0  24593-4 0  9993
2 39090  98.5003 226.9126 0009607  24.3815 335.7823 14.35067428308711
Epoch (UTC): 18 January 2019 13:22:44
Eccentricity: 0.0009607
inclination: 98.5003°
perigee height: 768 km
apogee height: 782 km
right ascension of ascending node: 226.9126°
argument of perigee: 24.3815°
revolutions per day: 14.35067428
mean anomaly at epoch: 335.7823°
orbit number at epoch: 30871

The dashed part of the orbit path shows where the satellite is in the earth's shadow,  

DLR